Portada
METAR-TAF:

METAR-TAF

Aeropuertos :

Aeropuerto Alfonso López Pumarejo

Valledupar, Colombia

latitud: 10-26N, longitud: 073-15W, altitud: 138 m

Observación

El informe se hizo hace 41 minutos, a las 19:00 UTC
Viento 6 kt del oeste-suroeste
Temperatura 34°C
Humedad 50%
Presión 1013 hPa
Visibilidad 10 km o más
Escasas nubes a una altura de 2000 ft

METAR: SKVP 211900Z 25006KT 9999 FEW020 34/22 A2990

Hora: 14:41 (19:41 UTC)


TAF: falta

Observaciones y pronósticos meteorológicos de más de 4000 aeropuertos (mensajes METAR y TAF).

Los puntos amarillos y rojos representan las estaciones disponibles.

Ponga el ratón en el punto deseado para ver el nombre de la estación.

Haga clic para ver las observaciones y los pronósticos meteorológicos.

Para cambiar el mapa : haga clic en los botones verdes con una cruz de color negro para hacer un zoom, en el botón verde con un guión para alejar o en las flechas verdes para mapas adyacentes.


METAR-TAF: